Location: Beuerbach
(48.1459°N, 10.9174°E)
Time: 20:11:47
(UTC+00:00)

SL-16 R/B - Pass Details

Date: 12 August 2024
Orbit: 842 x 845 km, 71.0° (Epoch: 07 September)

Event Time Altitude Azimuth Distance (km) Brightness Sun altitude
Exits shadow 00:28:18 27° 272° (W) 1,588 3.4 -25.2°
Maximum altitude 00:30:17 34° 310° (NW) 1,371 3.4 -25.1°
Drops below altitude 10° 00:35:26 10° 15° (NNE) 2,476 5.7 -24.9°
Sets 00:38:08 0° 24° (NNE) 3,415 6.8 -24.7°
